{"data":{"norad_id":56907,"intl_designator":"2023-083AH","name":"STARLINK-6110","alt_names":[],"object_type":"PAYLOAD","status":"ACTIVE","operator":null,"country":"US","launch_date":"2023-06-12","launch_site_code":"AFETR","launch_vehicle":null,"mission":null,"orbit_class":"UNKNOWN","rcs_meters":null,"size_class":null,"mass_kg":null,"dimensions":null,"purposes":["comms"],"wikipedia_slug":null,"has_3d_model":false,"image_url":null,"decayed_at":null,"tle_current":{"epoch":"2026-09-20T16:23:39.505632Z","epoch_age_seconds":101751,"freshness":"FRESH","line1":"1 56907U 23083AH  26263.68309613 -.00000857  00000+0 -21617-4 0  9990","line2":"2 56907  43.0029  49.1446 0001539 269.3850  90.6826 15.27570005181739","mean_motion":15.27570005,"eccentricity":0.0001539,"inclination_deg":43.0029,"raan_deg":49.1446,"arg_perigee_deg":269.385,"mean_anomaly_deg":90.6826,"bstar":-2.1617e-5,"rev_number":18173,"period_min":94.267365507743,"perigee_km":482.0230836823,"apogee_km":484.13496597474,"semimajor_km":6861.2160248285,"source":"CELESTRAK","updated_at":"2026-09-21T09:00:33.525970Z"}}}